This demonstration page uses our WeatherBlox Daily Observations layout. Learn more.

Left ArrowRight Arrow

Hourly Observations for August 22, 2022

Temp ( °F °C ) Dew Point ( °F °C ) Humidity (%) Winds ( mph kmh ) Pressure ( in mb ) Visibility ( mi km ) Precip ( " mm )
12:52 am 00:52 Clear 69 20.6 65 18.3 87 87 Calm 30.04 1017 10 16 0.00 0.00
1:52 am 01:52 Clear 67 19.4 64 17.8 90 90 Calm 30.04 1017 10 16 0.00 0.00
2:52 am 02:52 Clear 67 19.4 64 17.8 90 90 Calm 30.02 1017 10 16 0.00 0.00
3:52 am 03:52 Clear 67 19.4 64 17.8 90 90 NE 3 6 30.01 1016 10 16 0.00 0.00
4:52 am 04:52 Clear 66 18.9 63 17.2 90 90 Calm 30.01 1016 10 16 0.00 0.00
5:52 am 05:52 Clear 66 18.9 63 17.2 90 90 Calm 30.01 1016 10 16 0.00 0.00
6:52 am 06:52 Sunny 66 18.9 63 17.2 90 90 Calm 30.03 1017 10 16 0.00 0.00
7:52 am 07:52 Sunny 69 20.6 64 17.8 84 84 E 5 7 30.04 1017 10 16 0.00 0.00
8:52 am 08:52 Sunny 74 23.3 66 18.9 76 76 ENE 6 9 30.04 1017 10 16 0.00 0.00
9:52 am 09:52 Sunny 76 24.4 65 18.3 69 69 E 8 13 30.05 1018 10 16 0.00 0.00
10:52 am 10:52 Sunny 78 25.6 64 17.8 62 62 E 10 17 30.05 1018 10 16 0.00 0.00
11:52 am 11:52 Mostly Cloudy 80 26.7 64 17.8 58 58 E 8 13 30.04 1017 10 16 0.00 0.00
12:52 pm 12:52 Mostly Cloudy 82 27.8 64 17.8 55 55 NE 10 17 30.03 1017 10 16 0.00 0.00
1:52 pm 13:52 Mostly Sunny 81 27.2 60 15.6 49 49 NNE 5 7 30.01 1016 10 16 0.00 0.00
2:52 pm 14:52 Mostly Cloudy 82 27.8 60 15.6 47 47 NNE 12 19 30.00 1016 10 16 0.00 0.00
3:52 pm 15:52 Sunny 84 28.9 59 15 43 43 NE 12 19 29.98 1015 10 16 0.00 0.00
4:52 pm 16:52 Sunny 83 28.3 59 15 44 44 NNE 13 20 29.96 1015 10 16 0.00 0.00
5:52 pm 17:52 Sunny 83 28.3 59 15 44 44 NE 12 19 29.95 1014 10 16 0.00 0.00
6:52 pm 18:52 Sunny 81 27.2 59 15 47 47 NE 10 17 29.96 1015 10 16 0.00 0.00
7:52 pm 19:52 Sunny 76 24.4 61 16.1 60 60 N 8 13 29.97 1015 10 16 0.00 0.00
8:52 pm 20:52 Clear 73 22.8 62 16.7 68 68 NNE 8 13 29.98 1015 10 16 0.00 0.00
9:52 pm 21:52 Clear 72 22.2 62 16.7 71 71 NE 7 11 30.01 1016 10 16 0.00 0.00
10:52 pm 22:52 Clear 71 21.7 63 17.2 76 76 ENE 7 11 30.00 1016 10 16 0.00 0.00
11:52 pm 23:52 Clear 70 21.1 62 16.7 76 76 ENE 7 11 29.99 1016 10 16 0.00 0.00

Powered by AerisWeather